Location: Pacheco
(37.9835°N, 122.0752°W)
Time: 10:19:15
(UTC+00:00)

Cosmos 1553 Rocket - Pass Details

Date: 29 July 2024
Orbit: 942 x 1006 km, 82.9° (Epoch: 20 April)

Event Time Altitude Azimuth Distance (km) Brightness Sun altitude
Rises 12:21:49 0° 183° (S) 3,645 6.7 -9.1°
Reaches altitude 10° 12:24:18 10° 183° (S) 2,711 6.0 -8.7°
Maximum altitude 12:30:32 86° 96° (E) 993 4.1 -7.6°
Drops below altitude 10° 12:36:54 10° 8° (N) 2,770 6.9 -6.5°
Sets 12:39:27 0° 8° (N) 3,729 7.6 -6.1°
